This is the latest recevied weather packets stored in our database for station/object DB0MW-13. If no packets are shown the sender has not sent any weather packets the latest 10 day(s).
| Time | Temp. | Humidity | Pressure | Rain* | Wind** | Luminosity | Snow |
|---|---|---|---|---|---|---|---|
| 1777761300 | 15.56° C | 80% | 1016.3 hPa | 0 mm | - | - | - |
| 1777761000 | 16.11° C | 78% | 1016.5 hPa | 0 mm | - | - | - |
| 1777760700 | 16.11° C | 77% | 1016.4 hPa | 0 mm | - | - | - |
| 1777760101 | 16.11° C | 77% | 1016.2 hPa | 0 mm | - | - | - |
| 1777759801 | 16.11° C | 77% | 1016.4 hPa | 0 mm | - | - | - |
| 1777759501 | 16.67° C | 76% | 1016.4 hPa | 0 mm | - | - | - |
| 1777758901 | 16.67° C | 75% | 1016.1 hPa | 0 mm | - | - | - |
| 1777758601 | 16.67° C | 75% | 1016.4 hPa | 0 mm | - | - | - |
| 1777758301 | 16.67° C | 74% | 1016.3 hPa | 0 mm | - | - | - |
| 1777758001 | 17.22° C | 73% | 1016.4 hPa | 0 mm | - | - | - |
| 1777757701 | 17.22° C | 73% | 1016.6 hPa | 0 mm | - | - | - |
| 1777757400 | 17.22° C | 72% | 1016.4 hPa | 0 mm | - | - | - |
| 1777757100 | 17.22° C | 69% | 1016.5 hPa | 0 mm | - | - | - |
| 1777756800 | 17.22° C | 69% | 1016.5 hPa | 0 mm | - | - | - |
| 1777756500 | 17.78° C | 70% | 1016.4 hPa | 0 mm | - | - | - |
| 1777756200 | 17.78° C | 69% | 1016.3 hPa | 0 mm | - | - | - |
| 1777755900 | 17.78° C | 69% | 1016.4 hPa | 0 mm | - | - | - |
| 1777754100 | 18.89° C | 71% | 1016.3 hPa | 0 mm | - | - | - |
| 1777753800 | 18.89° C | 71% | 1016.4 hPa | 0 mm | - | - | - |
| 1777753500 | 18.89° C | 71% | 1016.2 hPa | 0 mm | - | - | - |
| 1777753200 | 19.44° C | 71% | 1016.4 hPa | 0 mm | - | - | - |
| 1777752900 | 19.44° C | 70% | 1016.6 hPa | 0 mm | - | - | - |
| 1777752600 | 19.44° C | 70% | 1016.5 hPa | 0 mm | - | - | - |
| 1777752001 | 20° C | 69% | 1016.5 hPa | 0 mm | - | - | - |
| 1777751701 | 20° C | 68% | 1016.6 hPa | 0 mm | - | - | - |
* Rain latest hour (hover to see other rain measurements)
** Current wind speed in m/s (hover to see current wind gust speed)